Location: *
(49.8044°N, 4.0558°E)
Time: 19:34:19
(UTC+00:00)

Mayak - Pass Details

Date: 09 April 2020
Orbit: 581 x 600 km, 97.5° (Epoch: 03 June)

Event Time Altitude Azimuth Distance (km) Brightness Sun altitude
Rises 23:36:19 0° 358° (N) 2,826 ? -32.1°
Reaches altitude 10° 23:39:21 10° 334° (NNW) 1,916 ? -32.1°
Enters shadow 23:41:12 14° 307° (NW) 1,658 ? -32.2°
